Saint Bonnet de Bellac- Haute Vienne - France
Donnes mto: mardi, 29/05/2012
Date Horaire Temp. E. Hum. E. P.atmo. Pluie Vent Direction Direction Ensoleilleme Solaire P. de rose Temp au vent Rafales
29/05/2012 00:00 14,5 C 77 % 1016,8 hPa 0,0 mm 0,0 km/h (0 Bft) N-NE 22 0 min 0 W/m 10,5 C 14,5 C 0,0 km/h (0 Bft)
29/05/2012 00:10 14,3 C 78 % 1016,7 hPa 0,0 mm 0,0 km/h (0 Bft) N-NE 22 0 min 0 W/m 10,5 C 14,3 C 0,0 km/h (0 Bft)
29/05/2012 00:20 14,2 C 79 % 1016,7 hPa 0,0 mm 0,0 km/h (0 Bft) N-NE 22 0 min 0 W/m 10,6 C 14,2 C 0,0 km/h (0 Bft)
29/05/2012 00:30 14,0 C 79 % 1016,6 hPa 0,0 mm 0,0 km/h (0 Bft) N-NE 22 0 min 0 W/m 10,4 C 14,0 C 0,0 km/h (0 Bft)
29/05/2012 00:40 13,9 C 80 % 1016,6 hPa 0,0 mm 0,0 km/h (0 Bft) N-NE 22 0 min 0 W/m 10,5 C 13,9 C 0,0 km/h (0 Bft)
29/05/2012 00:50 13,9 C 81 % 1016,6 hPa 0,0 mm 0,0 km/h (0 Bft) N-NE 22 0 min 0 W/m 10,7 C 13,9 C 0,0 km/h (0 Bft)
29/05/2012 01:00 13,9 C 81 % 1016,5 hPa 0,0 mm 0,0 km/h (0 Bft) N-NE 22 0 min 0 W/m 10,7 C 13,9 C 0,0 km/h (0 Bft)
29/05/2012 01:10 13,8 C 81 % 1016,5 hPa 0,0 mm 0,0 km/h (0 Bft) N-NE 22 0 min 0 W/m 10,6 C 13,8 C 0,0 km/h (0 Bft)
29/05/2012 01:20 13,8 C 82 % 1016,4 hPa 0,0 mm 0,0 km/h (0 Bft) N-NE 22 0 min 0 W/m 10,8 C 13,8 C 0,0 km/h (0 Bft)
29/05/2012 01:30 13,8 C 82 % 1016,5 hPa 0,0 mm 0,0 km/h (0 Bft) N-NE 22 0 min 0 W/m 10,8 C 13,8 C 0,0 km/h (0 Bft)
29/05/2012 01:40 13,6 C 83 % 1016,4 hPa 0,0 mm 0,0 km/h (0 Bft) N-NE 22 0 min 0 W/m 10,8 C 13,6 C 0,0 km/h (0 Bft)
29/05/2012 01:50 13,4 C 83 % 1016,4 hPa 0,0 mm 0,0 km/h (0 Bft) N-NE 22 0 min 0 W/m 10,6 C 13,4 C 0,0 km/h (0 Bft)
29/05/2012 02:00 13,3 C 83 % 1016,4 hPa 0,0 mm 0,0 km/h (0 Bft) N-NE 22 0 min 0 W/m 10,5 C 13,3 C 0,0 km/h (0 Bft)
29/05/2012 02:10 13,2 C 83 % 1016,4 hPa 0,0 mm 0,0 km/h (0 Bft) N-NE 22 0 min 0 W/m 10,4 C 13,2 C 0,0 km/h (0 Bft)
29/05/2012 02:20 13,1 C 84 % 1016,3 hPa 0,0 mm 0,0 km/h (0 Bft) N-NE 22 0 min 0 W/m 10,5 C 13,1 C 0,0 km/h (0 Bft)
29/05/2012 02:30 12,9 C 84 % 1016,3 hPa 0,0 mm 0,0 km/h (0 Bft) N-NE 22 0 min 0 W/m 10,3 C 12,9 C 0,0 km/h (0 Bft)
29/05/2012 02:40 12,8 C 85 % 1016,2 hPa 0,0 mm 0,0 km/h (0 Bft) N-NE 22 0 min 0 W/m 10,3 C 12,8 C 0,0 km/h (0 Bft)
29/05/2012 02:50 12,6 C 85 % 1016,2 hPa 0,0 mm 0,0 km/h (0 Bft) N-NE 22 0 min 0 W/m 10,1 C 12,6 C 0,0 km/h (0 Bft)
29/05/2012 03:02 12,5 C 85 % 1016,3 hPa 0,0 mm 0,0 km/h (0 Bft) N-NE 22 0 min 0 W/m 10,0 C 12,5 C 0,0 km/h (0 Bft)
29/05/2012 03:10 12,4 C 85 % 1016,2 hPa 0,0 mm 0,0 km/h (0 Bft) N-NE 22 0 min 0 W/m 9,9 C 12,4 C 0,0 km/h (0 Bft)
29/05/2012 03:20 12,3 C 85 % 1016,2 hPa 0,0 mm 0,0 km/h (0 Bft) N-NE 22 0 min 0 W/m 9,9 C 12,3 C 0,0 km/h (0 Bft)
29/05/2012 03:30 12,3 C 85 % 1016,2 hPa 0,0 mm 0,0 km/h (0 Bft) N-NE 22 0 min 0 W/m 9,9 C 12,3 C 0,0 km/h (0 Bft)
29/05/2012 03:40 12,1 C 86 % 1016,1 hPa 0,0 mm 0,0 km/h (0 Bft) N-NE 22 0 min 0 W/m 9,8 C 12,1 C 0,0 km/h (0 Bft)
29/05/2012 03:50 12,1 C 86 % 1016,2 hPa 0,0 mm 0,0 km/h (0 Bft) N-NE 22 0 min 0 W/m 9,8 C 12,1 C 0,0 km/h (0 Bft)
29/05/2012 04:00 11,9 C 86 % 1016,1 hPa 0,0 mm 0,0 km/h (0 Bft) N-NE 22 0 min 0 W/m 9,6 C 11,9 C 0,0 km/h (0 Bft)
29/05/2012 04:10 11,9 C 86 % 1016,1 hPa 0,0 mm 0,0 km/h (0 Bft) N-NE 22 0 min 0 W/m 9,6 C 11,9 C 0,0 km/h (0 Bft)
29/05/2012 04:20 11,9 C 86 % 1016,1 hPa 0,0 mm 0,0 km/h (0 Bft) N 360 0 min 0 W/m 9,6 C 11,9 C 0,0 km/h (0 Bft)
29/05/2012 04:30 11,9 C 87 % 1016,1 hPa 0,0 mm 0,0 km/h (0 Bft) N 360 0 min 0 W/m 9,8 C 11,9 C 0,0 km/h (0 Bft)
29/05/2012 04:40 11,9 C 88 % 1016,0 hPa 0,0 mm 0,0 km/h (0 Bft) N-NO 337 0 min 0 W/m 10,0 C 11,9 C 0,0 km/h (0 Bft)
29/05/2012 04:50 11,9 C 88 % 1016,0 hPa 0,0 mm 0,0 km/h (0 Bft) N-NE 22 0 min 0 W/m 10,0 C 11,9 C 3,2 km/h (1 Bft)
29/05/2012 05:00 12,1 C 88 % 1016,0 hPa 0,0 mm 0,4 km/h (0 Bft) N-NE 22 0 min 0 W/m 10,2 C 12,1 C 4,0 km/h (1 Bft)
29/05/2012 05:10 12,1 C 88 % 1016,0 hPa 0,0 mm 0,0 km/h (0 Bft) N-NE 22 0 min 0 W/m 10,2 C 12,1 C 0,0 km/h (0 Bft)
29/05/2012 05:20 12,1 C 88 % 1016,1 hPa 0,0 mm 0,0 km/h (0 Bft) NE 45 0 min 0 W/m 10,2 C 12,1 C 0,0 km/h (0 Bft)
29/05/2012 05:30 12,0 C 88 % 1016,1 hPa 0,0 mm 0,0 km/h (0 Bft) NE 45 0 min 0 W/m 10,1 C 12,0 C 0,0 km/h (0 Bft)
29/05/2012 05:40 11,9 C 88 % 1016,1 hPa 0,0 mm 0,0 km/h (0 Bft) N 360 0 min 0 W/m 10,0 C 11,9 C 0,0 km/h (0 Bft)
29/05/2012 05:50 11,8 C 88 % 1016,1 hPa 0,0 mm 0,7 km/h (0 Bft) N-NE 22 0 min 0 W/m 9,9 C 11,8 C 0,7 km/h (0 Bft)
29/05/2012 06:00 11,9 C 88 % 1016,3 hPa 0,0 mm 0,0 km/h (0 Bft) N-NE 22 0 min 0 W/m 10,0 C 11,9 C 0,0 km/h (0 Bft)
29/05/2012 06:10 11,9 C 89 % 1016,2 hPa 0,0 mm 0,0 km/h (0 Bft) N-NE 22 0 min 0 W/m 10,1 C 11,9 C 0,0 km/h (0 Bft)
29/05/2012 06:20 11,8 C 89 % 1016,2 hPa 0,0 mm 1,1 km/h (1 Bft) N 360 0 min 0 W/m 10,0 C 11,8 C 1,1 km/h (1 Bft)
29/05/2012 06:30 11,8 C 89 % 1016,3 hPa 0,0 mm 0,0 km/h (0 Bft) N-NO 337 0 min 0 W/m 10,0 C 11,8 C 0,0 km/h (0 Bft)
29/05/2012 06:40 11,8 C 89 % 1016,3 hPa 0,0 mm 0,0 km/h (0 Bft) N-NO 337 0 min 0 W/m 10,0 C 11,8 C 0,0 km/h (0 Bft)
29/05/2012 06:50 11,8 C 89 % 1016,2 hPa 0,0 mm 0,0 km/h (0 Bft) N 360 0 min 0 W/m 10,0 C 11,8 C 0,0 km/h (0 Bft)
29/05/2012 07:00 12,1 C 90 % 1016,3 hPa 0,0 mm 0,0 km/h (0 Bft) N 360 0 min 0 W/m 10,5 C 12,1 C 0,0 km/h (0 Bft)
29/05/2012 07:10 12,3 C 90 % 1016,3 hPa 0,0 mm 0,0 km/h (0 Bft) N 360 0 min 0 W/m 10,7 C 12,3 C 0,0 km/h (0 Bft)
29/05/2012 07:20 12,5 C 90 % 1016,4 hPa 0,0 mm 0,0 km/h (0 Bft) N 360 0 min 0 W/m 10,9 C 12,5 C 0,0 km/h (0 Bft)
29/05/2012 07:30 12,8 C 90 % 1016,4 hPa 0,0 mm 0,0 km/h (0 Bft) N 360 0 min 0 W/m 11,2 C 12,8 C 0,0 km/h (0 Bft)
29/05/2012 07:40 13,2 C 90 % 1016,3 hPa 0,0 mm 0,0 km/h (0 Bft) N 360 0 min 0 W/m 11,6 C 13,2 C 0,0 km/h (0 Bft)
29/05/2012 07:50 13,5 C 90 % 1016,3 hPa 0,0 mm 1,1 km/h (1 Bft) N 360 0 min 0 W/m 11,9 C 13,5 C 5,8 km/h (2 Bft)
29/05/2012 08:00 14,0 C 90 % 1016,4 hPa 0,0 mm 2,5 km/h (1 Bft) N-NE 22 0 min 0 W/m 12,4 C 14,0 C 4,0 km/h (1 Bft)
29/05/2012 08:10 14,4 C 90 % 1016,4 hPa 0,0 mm 1,8 km/h (1 Bft) N 360 0 min 0 W/m 12,8 C 14,4 C 7,2 km/h (2 Bft)
29/05/2012 08:20 14,9 C 89 % 1016,4 hPa 0,0 mm 2,2 km/h (1 Bft) N-NE 22 0 min 0 W/m 13,1 C 14,9 C 6,8 km/h (2 Bft)
29/05/2012 08:30 15,3 C 87 % 1016,4 hPa 0,0 mm 0,7 km/h (0 Bft) N-NE 22 0 min 0 W/m 13,1 C 15,3 C 4,0 km/h (1 Bft)
29/05/2012 08:40 15,8 C 86 % 1016,5 hPa 0,0 mm 0,7 km/h (0 Bft) N-NE 22 0 min 0 W/m 13,5 C 15,8 C 4,0 km/h (1 Bft)
29/05/2012 08:50 16,3 C 84 % 1016,6 hPa 0,0 mm 2,2 km/h (1 Bft) N-NE 22 0 min 0 W/m 13,6 C 16,3 C 3,2 km/h (1 Bft)
29/05/2012 09:00 16,9 C 83 % 1016,5 hPa 0,0 mm 1,8 km/h (1 Bft) N-NE 22 0 min 0 W/m 14,0 C 16,9 C 3,6 km/h (1 Bft)
29/05/2012 09:10 17,4 C 81 % 1016,5 hPa 0,0 mm 4,3 km/h (1 Bft) NE 45 0 min 0 W/m 14,1 C 17,4 C 4,3 km/h (1 Bft)
29/05/2012 09:20 18,0 C 79 % 1016,5 hPa 0,0 mm 2,2 km/h (1 Bft) NE 45 0 min 0 W/m 14,3 C 18,0 C 7,2 km/h (2 Bft)
29/05/2012 09:30 18,5 C 79 % 1016,5 hPa 0,0 mm 1,4 km/h (1 Bft) N-NE 22 0 min 0 W/m 14,8 C 18,5 C 4,0 km/h (1 Bft)
29/05/2012 09:40 19,1 C 77 % 1016,5 hPa 0,0 mm 2,5 km/h (1 Bft) NE 45 0 min 0 W/m 15,0 C 19,1 C 7,2 km/h (2 Bft)
29/05/2012 09:50 19,5 C 75 % 1016,5 hPa 0,0 mm 3,6 km/h (1 Bft) N 360 0 min 0 W/m 14,9 C 19,5 C 7,9 km/h (2 Bft)
29/05/2012 10:00 19,9 C 75 % 1016,4 hPa 0,0 mm 1,8 km/h (1 Bft) N-NE 22 0 min 0 W/m 15,3 C 19,9 C 3,6 km/h (1 Bft)
29/05/2012 10:10 20,4 C 74 % 1016,4 hPa 0,0 mm 3,6 km/h (1 Bft) NE 45 0 min 0 W/m 15,6 C 20,4 C 3,6 km/h (1 Bft)
29/05/2012 10:20 20,8 C 73 % 1016,3 hPa 0,0 mm 2,9 km/h (1 Bft) E-NE 67 0 min 0 W/m 15,8 C 20,8 C 7,6 km/h (2 Bft)
29/05/2012 10:30 21,2 C 71 % 1016,3 hPa 0,0 mm 2,5 km/h (1 Bft) N 360 0 min 0 W/m 15,7 C 21,2 C 6,5 km/h (2 Bft)
29/05/2012 10:40 21,7 C 71 % 1016,2 hPa 0,0 mm 4,7 km/h (1 Bft) N-NE 22 0 min 0 W/m 16,2 C 21,7 C 6,8 km/h (2 Bft)
29/05/2012 10:50 22,1 C 70 % 1016,1 hPa 0,0 mm 2,9 km/h (1 Bft) NE 45 0 min 0 W/m 16,4 C 22,1 C 4,3 km/h (1 Bft)
29/05/2012 11:00 22,5 C 69 % 1016,2 hPa 0,0 mm 3,6 km/h (1 Bft) N-NE 22 0 min 0 W/m 16,5 C 22,5 C 6,5 km/h (2 Bft)
29/05/2012 11:10 22,9 C 69 % 1016,2 hPa 0,0 mm 1,1 km/h (1 Bft) N 360 0 min 0 W/m 16,9 C 22,9 C 4,3 km/h (1 Bft)
29/05/2012 11:20 23,4 C 67 % 1016,2 hPa 0,0 mm 2,9 km/h (1 Bft) NE 45 0 min 0 W/m 16,9 C 23,4 C 4,3 km/h (1 Bft)
29/05/2012 11:30 23,8 C 66 % 1016,1 hPa 0,0 mm 3,6 km/h (1 Bft) E 90 0 min 0 W/m 17,1 C 23,8 C 4,0 km/h (1 Bft)
29/05/2012 11:40 24,1 C 66 % 1016,1 hPa 0,0 mm 3,2 km/h (1 Bft) N-NE 22 0 min 0 W/m 17,3 C 24,1 C 3,2 km/h (1 Bft)
29/05/2012 11:50 24,3 C 65 % 1016,0 hPa 0,0 mm 1,1 km/h (1 Bft) N-NE 22 0 min 0 W/m 17,3 C 24,3 C 2,9 km/h (1 Bft)
29/05/2012 12:00 24,8 C 64 % 1016,0 hPa 0,0 mm 4,7 km/h (1 Bft) N 360 0 min 0 W/m 17,5 C 24,8 C 7,2 km/h (2 Bft)
29/05/2012 12:10 25,1 C 63 % 1015,9 hPa 0,0 mm 3,6 km/h (1 Bft) N-NE 22 0 min 0 W/m 17,5 C 25,1 C 7,2 km/h (2 Bft)
29/05/2012 12:20 25,2 C 61 % 1015,9 hPa 0,0 mm 9,7 km/h (2 Bft) N 360 0 min 0 W/m 17,1 C 25,2 C 13,3 km/h (3 Bft)
29/05/2012 12:30 25,6 C 63 % 1015,9 hPa 0,0 mm 1,4 km/h (1 Bft) N-NE 22 0 min 0 W/m 18,0 C 25,6 C 3,6 km/h (1 Bft)
29/05/2012 12:40 26,0 C 61 % 1015,9 hPa 0,0 mm 4,0 km/h (1 Bft) NE 45 0 min 0 W/m 17,9 C 26,0 C 7,2 km/h (2 Bft)
29/05/2012 12:50 26,3 C 59 % 1015,9 hPa 0,0 mm 9,0 km/h (2 Bft) N-NE 22 0 min 0 W/m 17,6 C 26,3 C 14,0 km/h (3 Bft)
29/05/2012 13:00 26,5 C 59 % 1015,9 hPa 0,0 mm 6,8 km/h (2 Bft) E-NE 67 0 min 0 W/m 17,8 C 26,5 C 7,6 km/h (2 Bft)
29/05/2012 13:10 26,5 C 57 % 1015,9 hPa 0,0 mm 4,3 km/h (1 Bft) N-NE 22 0 min 0 W/m 17,3 C 26,5 C 6,8 km/h (2 Bft)
29/05/2012 13:20 26,7 C 57 % 1015,9 hPa 0,0 mm 7,2 km/h (2 Bft) E-NE 67 0 min 0 W/m 17,5 C 26,7 C 10,4 km/h (2 Bft)
29/05/2012 13:30 26,8 C 56 % 1015,9 hPa 0,0 mm 2,9 km/h (1 Bft) E 90 0 min 0 W/m 17,3 C 26,8 C 4,0 km/h (1 Bft)
29/05/2012 13:40 27,0 C 55 % 1015,9 hPa 0,0 mm 7,6 km/h (2 Bft) N 360 0 min 0 W/m 17,2 C 27,0 C 11,5 km/h (2 Bft)
29/05/2012 13:50 27,3 C 55 % 1015,8 hPa 0,0 mm 3,2 km/h (1 Bft) N-NE 22 0 min 0 W/m 17,4 C 27,3 C 4,0 km/h (1 Bft)
29/05/2012 14:00 27,6 C 54 % 1015,8 hPa 0,0 mm 2,9 km/h (1 Bft) E-NE 67 0 min 0 W/m 17,4 C 27,6 C 4,0 km/h (1 Bft)
29/05/2012 14:10 27,5 C 53 % 1015,6 hPa 0,0 mm 2,5 km/h (1 Bft) NE 45 0 min 0 W/m 17,0 C 27,5 C 4,0 km/h (1 Bft)
29/05/2012 14:20 27,6 C 54 % 1015,5 hPa 0,0 mm 5,0 km/h (1 Bft) N-NE 22 0 min 0 W/m 17,4 C 27,6 C 6,1 km/h (2 Bft)
29/05/2012 14:30 27,6 C 53 % 1015,5 hPa 0,0 mm 5,8 km/h (2 Bft) NE 45 0 min 0 W/m 17,1 C 27,6 C 7,6 km/h (2 Bft)
29/05/2012 14:40 27,6 C 53 % 1015,3 hPa 0,0 mm 6,5 km/h (2 Bft) N-NE 22 0 min 0 W/m 17,1 C 27,6 C 8,6 km/h (2 Bft)
29/05/2012 14:50 27,4 C 53 % 1015,3 hPa 0,0 mm 4,3 km/h (1 Bft) N-NE 22 0 min 0 W/m 17,0 C 27,4 C 6,1 km/h (2 Bft)
29/05/2012 15:00 27,6 C 53 % 1015,3 hPa 0,0 mm 3,2 km/h (1 Bft) N-NE 22 0 min 0 W/m 17,1 C 27,6 C 6,1 km/h (2 Bft)
29/05/2012 15:10 27,7 C 53 % 1015,2 hPa 0,0 mm 4,0 km/h (1 Bft) N-NO 337 0 min 0 W/m 17,2 C 27,7 C 8,6 km/h (2 Bft)
29/05/2012 15:20 27,9 C 53 % 1015,2 hPa 0,0 mm 0,7 km/h (0 Bft) N-NE 22 0 min 0 W/m 17,4 C 27,9 C 0,7 km/h (0 Bft)
29/05/2012 15:30 28,1 C 50 % 1015,3 hPa 0,0 mm 5,8 km/h (2 Bft) E-NE 67 0 min 0 W/m 16,7 C 28,1 C 9,0 km/h (2 Bft)
29/05/2012 15:40 27,9 C 51 % 1015,0 hPa 0,0 mm 10,1 km/h (2 Bft) N-NE 22 0 min 0 W/m 16,8 C 27,9 C 20,2 km/h (4 Bft)
29/05/2012 15:50 27,9 C 51 % 1015,0 hPa 0,0 mm 7,6 km/h (2 Bft) N-NE 22 0 min 0 W/m 16,8 C 27,9 C 9,7 km/h (2 Bft)
29/05/2012 16:00 27,9 C 51 % 1015,1 hPa 0,0 mm 4,0 km/h (1 Bft) N-NE 22 0 min 0 W/m 16,8 C 27,9 C 4,0 km/h (1 Bft)
29/05/2012 16:10 28,1 C 51 % 1014,9 hPa 0,0 mm 3,6 km/h (1 Bft) N-NE 22 0 min 0 W/m 17,0 C 28,1 C 6,8 km/h (2 Bft)
29/05/2012 16:20 27,9 C 51 % 1014,9 hPa 0,0 mm 1,4 km/h (1 Bft) N-NO 337 0 min 0 W/m 16,8 C 27,9 C 4,3 km/h (1 Bft)
29/05/2012 16:30 27,9 C 52 % 1014,9 hPa 0,0 mm 5,4 km/h (2 Bft) E-NE 67 0 min 0 W/m 17,1 C 27,9 C 8,3 km/h (2 Bft)
29/05/2012 16:40 27,9 C 52 % 1014,9 hPa 0,0 mm 5,0 km/h (1 Bft) N-NE 22 0 min 0 W/m 17,1 C 27,9 C 5,0 km/h (1 Bft)
29/05/2012 16:50 28,1 C 50 % 1014,9 hPa 0,0 mm 6,5 km/h (2 Bft) N 360 0 min 0 W/m 16,7 C 28,1 C 12,6 km/h (3 Bft)
29/05/2012 17:00 28,1 C 49 % 1014,9 hPa 0,0 mm 6,5 km/h (2 Bft) N 360 0 min 0 W/m 16,4 C 28,1 C 8,3 km/h (2 Bft)
29/05/2012 17:10 27,9 C 50 % 1014,8 hPa 0,0 mm 0,7 km/h (0 Bft) N 360 0 min 0 W/m 16,5 C 27,9 C 0,7 km/h (0 Bft)
29/05/2012 17:20 28,1 C 49 % 1014,8 hPa 0,0 mm 7,2 km/h (2 Bft) E-NE 67 0 min 0 W/m 16,4 C 28,1 C 10,4 km/h (2 Bft)
29/05/2012 17:30 28,2 C 49 % 1014,6 hPa 0,0 mm 8,3 km/h (2 Bft) N-NE 22 0 min 0 W/m 16,5 C 28,2 C 11,5 km/h (2 Bft)
29/05/2012 17:40 28,1 C 50 % 1014,7 hPa 0,0 mm 6,8 km/h (2 Bft) N-NO 337 0 min 0 W/m 16,7 C 28,1 C 12,6 km/h (3 Bft)
29/05/2012 17:50 28,1 C 49 % 1014,7 hPa 0,0 mm 5,4 km/h (2 Bft) N-NO 337 0 min 0 W/m 16,4 C 28,1 C 6,1 km/h (2 Bft)
29/05/2012 18:00 28,2 C 50 % 1014,6 hPa 0,0 mm 0,7 km/h (0 Bft) N-NE 22 0 min 0 W/m 16,8 C 28,2 C 3,6 km/h (1 Bft)
29/05/2012 18:10 28,3 C 50 % 1014,6 hPa 0,0 mm 5,0 km/h (1 Bft) NE 45 0 min 0 W/m 16,9 C 28,3 C 9,4 km/h (2 Bft)
29/05/2012 18:20 28,2 C 49 % 1014,5 hPa 0,0 mm 4,0 km/h (1 Bft) E-NE 67 0 min 0 W/m 16,5 C 28,2 C 8,3 km/h (2 Bft)
29/05/2012 18:30 28,1 C 49 % 1014,4 hPa 0,0 mm 4,7 km/h (1 Bft) N-NO 337 0 min 0 W/m 16,4 C 28,1 C 8,6 km/h (2 Bft)
29/05/2012 18:40 27,9 C 49 % 1014,5 hPa 0,0 mm 4,3 km/h (1 Bft) N 360 0 min 0 W/m 16,2 C 27,9 C 7,9 km/h (2 Bft)
29/05/2012 18:50 27,8 C 49 % 1014,5 hPa 0,0 mm 6,8 km/h (2 Bft) N 360 0 min 0 W/m 16,1 C 27,8 C 9,7 km/h (2 Bft)
29/05/2012 19:00 27,6 C 48 % 1014,5 hPa 0,0 mm 1,4 km/h (1 Bft) N 360 0 min 0 W/m 15,6 C 27,6 C 3,6 km/h (1 Bft)
29/05/2012 19:10 27,4 C 49 % 1014,5 hPa 0,0 mm 0,7 km/h (0 Bft) N 360 0 min 0 W/m 15,7 C 27,4 C 0,7 km/h (0 Bft)
29/05/2012 19:20 27,3 C 49 % 1014,4 hPa 0,0 mm 2,5 km/h (1 Bft) NE 45 0 min 0 W/m 15,6 C 27,3 C 2,9 km/h (1 Bft)
29/05/2012 19:30 27,1 C 49 % 1014,3 hPa 0,0 mm 3,2 km/h (1 Bft) N-NE 22 0 min 0 W/m 15,4 C 27,1 C 7,2 km/h (2 Bft)
29/05/2012 19:40 26,9 C 50 % 1014,4 hPa 0,0 mm 1,8 km/h (1 Bft) N 360 0 min 0 W/m 15,6 C 26,9 C 1,8 km/h (1 Bft)
29/05/2012 19:50 26,7 C 50 % 1014,4 hPa 0,0 mm 2,9 km/h (1 Bft) NE 45 0 min 0 W/m 15,4 C 26,7 C 4,0 km/h (1 Bft)
29/05/2012 20:00 26,3 C 51 % 1014,6 hPa 0,0 mm 1,4 km/h (1 Bft) N-NE 22 0 min 0 W/m 15,3 C 26,3 C 3,2 km/h (1 Bft)
29/05/2012 20:10 25,7 C 53 % 1014,7 hPa 0,0 mm 0,7 km/h (0 Bft) N-NE 22 0 min 0 W/m 15,4 C 25,7 C 4,0 km/h (1 Bft)
29/05/2012 20:20 25,2 C 53 % 1014,8 hPa 0,0 mm 0,7 km/h (0 Bft) N-NE 22 0 min 0 W/m 14,9 C 25,2 C 3,2 km/h (1 Bft)
29/05/2012 20:30 24,6 C 54 % 1014,9 hPa 0,0 mm 2,9 km/h (1 Bft) N 360 0 min 0 W/m 14,7 C 24,6 C 4,0 km/h (1 Bft)
29/05/2012 20:40 24,2 C 55 % 1014,9 hPa 0,0 mm 0,0 km/h (0 Bft) N 360 0 min 0 W/m 14,6 C 24,2 C 3,2 km/h (1 Bft)
29/05/2012 20:50 23,7 C 56 % 1014,9 hPa 0,0 mm 0,0 km/h (0 Bft) N-NE 22 0 min 0 W/m 14,4 C 23,7 C 0,0 km/h (0 Bft)
29/05/2012 21:00 23,3 C 57 % 1014,8 hPa 0,0 mm 0,0 km/h (0 Bft) N-NE 22 0 min 0 W/m 14,3 C 23,3 C 0,0 km/h (0 Bft)
29/05/2012 21:10 22,9 C 59 % 1014,9 hPa 0,0 mm 0,0 km/h (0 Bft) N-NE 22 0 min 0 W/m 14,5 C 22,9 C 0,0 km/h (0 Bft)
29/05/2012 21:20 22,4 C 60 % 1015,0 hPa 0,0 mm 0,0 km/h (0 Bft) N-NE 22 0 min 0 W/m 14,2 C 22,4 C 0,0 km/h (0 Bft)
29/05/2012 21:30 22,0 C 61 % 1014,9 hPa 0,0 mm 0,0 km/h (0 Bft) N-NE 22 0 min 0 W/m 14,1 C 22,0 C 0,0 km/h (0 Bft)
29/05/2012 21:40 21,6 C 62 % 1015,0 hPa 0,0 mm 0,0 km/h (0 Bft) N-NE 22 0 min 0 W/m 14,0 C 21,6 C 0,0 km/h (0 Bft)
29/05/2012 21:50 21,1 C 63 % 1015,1 hPa 0,0 mm 0,0 km/h (0 Bft) N-NE 22 0 min 0 W/m 13,8 C 21,1 C 0,0 km/h (0 Bft)
29/05/2012 22:00 20,6 C 64 % 1015,3 hPa 0,0 mm 0,0 km/h (0 Bft) N-NE 22 0 min 0 W/m 13,5 C 20,6 C 0,0 km/h (0 Bft)
29/05/2012 22:10 20,2 C 65 % 1015,5 hPa 0,0 mm 0,0 km/h (0 Bft) N-NE 22 0 min 0 W/m 13,4 C 20,2 C 0,0 km/h (0 Bft)
29/05/2012 22:20 19,8 C 67 % 1015,7 hPa 0,0 mm 0,0 km/h (0 Bft) N-NE 22 0 min 0 W/m 13,5 C 19,8 C 0,0 km/h (0 Bft)
29/05/2012 22:30 19,3 C 67 % 1015,7 hPa 0,0 mm 0,0 km/h (0 Bft) N-NE 22 0 min 0 W/m 13,0 C 19,3 C 0,0 km/h (0 Bft)
29/05/2012 22:40 19,1 C 68 % 1015,8 hPa 0,0 mm 0,0 km/h (0 Bft) N-NE 22 0 min 0 W/m 13,1 C 19,1 C 0,0 km/h (0 Bft)
29/05/2012 22:50 18,8 C 70 % 1015,8 hPa 0,0 mm 0,0 km/h (0 Bft) N-NE 22 0 min 0 W/m 13,2 C 18,8 C 0,0 km/h (0 Bft)
29/05/2012 23:00 18,5 C 70 % 1016,0 hPa 0,0 mm 0,0 km/h (0 Bft) N-NE 22 0 min 0 W/m 12,9 C 18,5 C 0,0 km/h (0 Bft)
29/05/2012 23:10 18,3 C 71 % 1016,1 hPa 0,0 mm 0,0 km/h (0 Bft) N-NE 22 0 min 0 W/m 12,9 C 18,3 C 0,0 km/h (0 Bft)
29/05/2012 23:20 18,0 C 72 % 1016,2 hPa 0,0 mm 0,0 km/h (0 Bft) N-NE 22 0 min 0 W/m 12,9 C 18,0 C 0,0 km/h (0 Bft)
29/05/2012 23:30 17,8 C 73 % 1016,2 hPa 0,0 mm 0,0 km/h (0 Bft) N-NE 22 0 min 0 W/m 12,9 C 17,8 C 0,0 km/h (0 Bft)
29/05/2012 23:40 17,6 C 74 % 1016,3 hPa 0,0 mm 0,0 km/h (0 Bft) N-NE 22 0 min 0 W/m 12,9 C 17,6 C 0,0 km/h (0 Bft)
29/05/2012 23:50 17,4 C 74 % 1016,2 hPa 0,0 mm 0,0 km/h (0 Bft) N-NE 22 0 min 0 W/m 12,7 C 17,4 C 0,0 km/h (0 Bft)
_ Min-Heure 06:50 19:00 19:30 - 23:50 - - - - 04:20 06:50 23:50
Minimum _ 11,8 C 48 % 1014,3 hPa - 0,0 km/h (0 Bft) - - - - 9,6 C 11,8 C 0,0 km/h (0 Bft)
_ Max-Heure 18:10 08:10 00:00 23:50 15:40 - - 23:50 23:50 12:30 18:10 15:40
Maximum _ 28,3 C 90 % 1016,8 hPa 0,0 mm 10,1 km/h
N-NE (2 Bft)
- - 0 min 0 W/m 18,0 C 28,3 C 20,2 km/h
N-NE (4 Bft)
Moyenne _ 20,2 C 69 % 1015,8 hPa #0,0 mm 2,0 km/h (1 Bft) N-NE - #0 min. 0 W/m 13,9 C 20,2 C 3,5 km/h (1 Bft)
Saint Bonnet de Bellac- Haute Vienne - France